CFG4ME LEPA-EDDF

Flight info

Callsign CFG4ME
Flight time N/A
Altitude 34000
Route MEROS DCT LAPIT DCT CHELY/N0463F320 DCT LUMAS DCT MAXIR DCT LUSOL DCT BODRU DCT OKTET DCT IRMAR DCT KINES DCT VANAS DCT MOBLO DCT UBIMA DCT SOSAL DCT KORED DCT BERSU N871 DITON/N0458F330 DCT LADOL/N0455F340 T163 EMPAX EMPAX5B
Aircraft B753/M-SDE2E3FGHIJ3J4J7RWXY/LB1

Departure

Time 2026-05-05 12:20
Airport Palma de Mallorca Airport (LEPA)

Arrival

Time N/A
Airport Frankfurt Main Airport (EDDF)
Time Latitude Longitude Altitude Speed Heading
2026-05-05 12:11 39.54458 2.73247 41 ft 0 kts 59°
2026-05-05 12:13 39.54459 2.73250 41 ft 2 kts 59°
2026-05-05 12:13 39.54491 2.73320 42 ft 15 kts 59°
2026-05-05 12:13 39.54554 2.73450 42 ft 16 kts 58°
2026-05-05 12:14 39.54631 2.73605 42 ft 23 kts 58°
2026-05-05 12:14 39.54704 2.73779 42 ft 20 kts 58°
2026-05-05 12:14 39.54774 2.73920 42 ft 16 kts 58°
2026-05-05 12:14 39.54853 2.73991 43 ft 17 kts 343°
2026-05-05 12:15 39.54994 2.73884 46 ft 24 kts 328°
2026-05-05 12:15 39.55116 2.73788 45 ft 7 kts 329°
2026-05-05 12:15 39.55165 2.73801 46 ft 11 kts 49°
2026-05-05 12:15 39.55275 2.73772 43 ft 25 kts 329°
2026-05-05 12:16 39.55454 2.73631 35 ft 31 kts 329°
2026-05-05 12:16 39.55570 2.73539 30 ft 13 kts 329°
2026-05-05 12:16 39.55645 2.73510 28 ft 9 kts 31°
2026-05-05 12:16 39.55696 2.73595 27 ft 18 kts 58°
2026-05-05 12:17 39.55795 2.73803 28 ft 32 kts 58°
2026-05-05 12:17 39.55912 2.74050 29 ft 31 kts 59°
2026-05-05 12:17 39.56036 2.74253 30 ft 27 kts 33°
2026-05-05 12:17 39.56141 2.74345 26 ft 0 kts 34°
2026-05-05 12:18 39.56148 2.74351 26 ft 7 kts 34°
2026-05-05 12:18 39.56230 2.74307 25 ft 19 kts 268°
2026-05-05 12:18 39.56208 2.74231 25 ft 0 kts 239°
2026-05-05 12:19 39.56204 2.74223 25 ft 5 kts 239°
2026-05-05 12:19 39.56080 2.73959 25 ft 66 kts 238°
2026-05-05 12:19 39.55721 2.73202 25 ft 128 kts 239°
2026-05-05 12:20 39.55156 2.72008 50 ft 178 kts 238°
2026-05-05 12:20 39.54460 2.70523 361 ft 209 kts 236°
2026-05-05 12:20 39.53613 2.68828 671 ft 248 kts 236°
2026-05-05 12:20 39.52586 2.66806 1017 ft 288 kts 236°
2026-05-05 12:21 39.51479 2.64616 2088 ft 288 kts 236°
2026-05-05 12:21 39.50446 2.62576 3557 ft 271 kts 236°
2026-05-05 12:21 39.49210 2.60847 4751 ft 262 kts 214°
2026-05-05 12:21 39.47633 2.59668 5588 ft 267 kts 210°
2026-05-05 12:22 39.46035 2.58515 6500 ft 268 kts 210°
2026-05-05 12:22 39.44287 2.57723 7385 ft 271 kts 186°
2026-05-05 12:22 39.42399 2.58021 8186 ft 280 kts 164°
2026-05-05 12:22 39.40637 2.59056 9094 ft 283 kts 154°
2026-05-05 12:23 39.38973 2.60414 9908 ft 289 kts 149°
2026-05-05 12:23 39.37344 2.62023 10512 ft 303 kts 142°
2026-05-05 12:23 39.35720 2.63860 10766 ft 323 kts 144°
2026-05-05 12:23 39.33951 2.65849 11174 ft 343 kts 142°
2026-05-05 12:24 39.32151 2.67975 11460 ft 363 kts 142°
2026-05-05 12:24 39.30392 2.70415 11823 ft 384 kts 128°
2026-05-05 12:24 39.29147 2.73521 12576 ft 395 kts 112°
2026-05-05 12:24 39.28547 2.77009 13200 ft 407 kts 97°
2026-05-05 12:25 39.28561 2.80707 13905 ft 414 kts 90°
2026-05-05 12:25 39.28639 2.84465 14586 ft 418 kts 91°
2026-05-05 12:25 39.28692 2.88227 15230 ft 424 kts 92°
2026-05-05 12:25 39.28756 2.91993 15914 ft 428 kts 88°
2026-05-05 12:26 39.29294 2.95825 16479 ft 437 kts 74°
2026-05-05 12:26 39.30412 2.99508 17118 ft 442 kts 63°
2026-05-05 12:26 39.32020 3.02939 17704 ft 446 kts 54°
2026-05-05 12:26 39.33773 3.06250 18242 ft 451 kts 57°
2026-05-05 12:27 39.35450 3.09700 18833 ft 455 kts 58°
2026-05-05 12:27 39.37098 3.13213 19310 ft 461 kts 59°
2026-05-05 12:27 39.38734 3.16784 19869 ft 465 kts 59°
2026-05-05 12:27 39.40355 3.20370 20297 ft 471 kts 60°
2026-05-05 12:28 39.42018 3.24083 20817 ft 474 kts 59°
2026-05-05 12:28 39.43695 3.27779 21261 ft 480 kts 58°
2026-05-05 12:28 39.45408 3.31465 21776 ft 483 kts 59°
2026-05-05 12:28 39.47129 3.35191 22226 ft 487 kts 59°
2026-05-05 12:29 39.48895 3.39027 22688 ft 491 kts 59°
2026-05-05 12:29 39.50660 3.42866 23147 ft 496 kts 59°
2026-05-05 12:29 39.52432 3.46726 23605 ft 499 kts 59°
2026-05-05 12:29 39.54206 3.50594 24036 ft 503 kts 59°
2026-05-05 12:30 39.55998 3.54509 24499 ft 507 kts 59°
2026-05-05 12:30 39.57801 3.58450 24917 ft 511 kts 59°
2026-05-05 12:30 39.59615 3.62426 25382 ft 514 kts 59°
2026-05-05 12:30 39.61424 3.66392 25741 ft 519 kts 60°
2026-05-05 12:31 39.63256 3.70413 26184 ft 520 kts 60°
2026-05-05 12:31 39.65095 3.74458 26569 ft 524 kts 60°
2026-05-05 12:31 39.66950 3.78541 26943 ft 527 kts 59°
2026-05-05 12:31 39.68819 3.82661 27283 ft 531 kts 60°
2026-05-05 12:32 39.70683 3.86775 27652 ft 534 kts 59°
2026-05-05 12:32 39.72581 3.90971 27985 ft 538 kts 60°
2026-05-05 12:32 39.74473 3.95155 28396 ft 540 kts 59°
2026-05-05 12:32 39.76387 3.99400 28725 ft 543 kts 59°
2026-05-05 12:33 39.78303 4.03652 29093 ft 545 kts 59°
2026-05-05 12:33 39.80228 4.07900 29361 ft 549 kts 57°
2026-05-05 12:33 39.82458 4.11942 29728 ft 550 kts 48°
2026-05-05 12:33 39.85102 4.15534 30204 ft 546 kts 39°
2026-05-05 12:34 39.88071 4.18603 30526 ft 545 kts 30°
2026-05-05 12:34 39.91309 4.21069 30981 ft 538 kts 21°
2026-05-05 12:34 39.94761 4.22905 31470 ft 530 kts 12°
2026-05-05 12:34 39.98349 4.24116 31825 ft 525 kts
2026-05-05 12:35 40.01901 4.25064 32241 ft 524 kts
2026-05-05 12:35 40.05462 4.25982 32623 ft 523 kts
2026-05-05 12:35 40.09085 4.26883 32888 ft 525 kts
2026-05-05 12:35 40.12606 4.27744 33397 ft 521 kts
2026-05-05 12:36 40.16207 4.28610 33640 ft 523 kts
2026-05-05 12:36 40.19769 4.29462 33948 ft 520 kts
2026-05-05 12:36 40.26905 4.31160 33934 ft 519 kts
2026-05-05 12:37 40.34085 4.32865 33932 ft 521 kts
2026-05-05 12:37 40.41196 4.34556 33935 ft 520 kts
2026-05-05 12:38 40.48342 4.36257 33934 ft 521 kts
2026-05-05 12:38 40.55478 4.37960 33936 ft 520 kts
2026-05-05 12:39 40.62647 4.39673 33933 ft 521 kts
2026-05-05 12:39 40.69808 4.41387 33939 ft 524 kts
2026-05-05 12:40 40.76974 4.43110 33942 ft 522 kts
2026-05-05 12:40 40.84140 4.44834 33944 ft 523 kts
2026-05-05 12:41 40.91243 4.46547 33945 ft 523 kts
2026-05-05 12:41 40.98423 4.48287 33946 ft 523 kts
2026-05-05 12:42 41.05618 4.50034 33954 ft 526 kts
2026-05-05 12:42 41.12813 4.51786 33940 ft 524 kts
2026-05-05 12:43 41.19979 4.53532 33945 ft 526 kts
2026-05-05 12:43 41.27181 4.55290 33945 ft 527 kts
2026-05-05 12:44 41.34371 4.57052 33951 ft 526 kts
2026-05-05 12:44 41.41568 4.58818 33950 ft 526 kts
2026-05-05 12:45 41.48786 4.60592 33948 ft 528 kts
2026-05-05 12:45 41.56012 4.62373 33951 ft 529 kts
2026-05-05 12:46 41.63244 4.64160 33953 ft 529 kts
2026-05-05 12:46 41.70474 4.66074 33943 ft 533 kts 10°
2026-05-05 12:47 41.77384 4.70021 33964 ft 547 kts 26°
2026-05-05 12:47 41.83959 4.75224 33944 ft 549 kts 27°
2026-05-05 12:48 41.90494 4.80453 33947 ft 550 kts 27°
2026-05-05 12:48 41.97065 4.85747 33953 ft 551 kts 27°
2026-05-05 12:49 42.03625 4.91052 33953 ft 551 kts 27°
2026-05-05 12:49 42.10190 4.96375 33951 ft 549 kts 27°
2026-05-05 12:50 42.16829 5.01772 33938 ft 547 kts 27°
2026-05-05 12:50 42.23354 5.07090 33940 ft 547 kts 27°
2026-05-05 12:51 42.29848 5.12394 33946 ft 547 kts 27°
2026-05-05 12:51 42.36364 5.17732 33938 ft 546 kts 27°
2026-05-05 12:52 42.42828 5.23040 33944 ft 544 kts 27°
2026-05-05 12:52 42.49295 5.28361 33940 ft 545 kts 27°
2026-05-05 12:53 42.55800 5.33731 33934 ft 544 kts 27°
2026-05-05 12:53 42.62270 5.39082 33941 ft 541 kts 27°
2026-05-05 12:54 42.71885 5.47058 33947 ft 542 kts 27°
2026-05-05 12:55 42.78340 5.52431 33940 ft 539 kts 27°
2026-05-05 12:55 42.84733 5.57763 33936 ft 540 kts 28°
2026-05-05 12:56 42.91157 5.63137 33937 ft 539 kts 28°
2026-05-05 12:56 42.97536 5.68487 33933 ft 540 kts 29°
2026-05-05 12:57 43.03889 5.73872 33930 ft 538 kts 28°
2026-05-05 12:57 43.10284 5.79227 33932 ft 538 kts 28°
2026-05-05 12:58 43.16707 5.84641 33927 ft 540 kts 28°
2026-05-05 12:58 43.23102 5.90053 33929 ft 539 kts 29°
2026-05-05 12:59 43.29479 5.95466 33925 ft 539 kts 29°
2026-05-05 12:59 43.35901 6.00755 33928 ft 534 kts 22°
2026-05-05 13:00 43.42851 6.03966 33940 ft 523 kts
2026-05-05 13:00 43.46460 6.04568 33930 ft 520 kts 359°
2026-05-05 13:01 43.60824 6.06170 33920 ft 518 kts 358°
2026-05-05 13:01 43.68047 6.06915 33924 ft 520 kts 358°
2026-05-05 13:02 43.75221 6.07944 33933 ft 522 kts
2026-05-05 13:02 43.82130 6.11355 33947 ft 533 kts 22°
2026-05-05 13:03 43.88805 6.15817 33950 ft 533 kts 23°
2026-05-05 13:03 43.95507 6.20360 33953 ft 532 kts 23°
2026-05-05 13:04 44.02165 6.24907 33950 ft 532 kts 23°
2026-05-05 13:04 44.08782 6.29444 33959 ft 532 kts 23°
2026-05-05 13:05 44.15426 6.34016 33953 ft 531 kts 23°
2026-05-05 13:05 44.22055 6.38586 33962 ft 533 kts 23°
2026-05-05 13:06 44.28719 6.43193 33965 ft 531 kts 23°
2026-05-05 13:06 44.35340 6.47780 33965 ft 532 kts 23°
2026-05-05 13:07 44.41927 6.52357 33959 ft 532 kts 23°
2026-05-05 13:07 44.48585 6.56994 33959 ft 532 kts 23°
2026-05-05 13:08 44.55173 6.61592 33959 ft 533 kts 23°
2026-05-05 13:08 44.61806 6.66233 33955 ft 533 kts 24°
2026-05-05 13:09 44.68434 6.70886 33963 ft 533 kts 24°
2026-05-05 13:09 44.75104 6.75494 33981 ft 529 kts 19°
2026-05-05 13:10 44.82103 6.78131 33986 ft 521 kts
2026-05-05 13:10 44.89285 6.78241 33953 ft 514 kts 353°
2026-05-05 13:11 44.96419 6.77898 33957 ft 513 kts 352°
2026-05-05 13:11 45.03525 6.77472 33951 ft 512 kts 352°
2026-05-05 13:12 45.10619 6.77019 33958 ft 510 kts 352°
2026-05-05 13:12 45.17627 6.76559 33939 ft 512 kts 352°
2026-05-05 13:13 45.24761 6.76088 33945 ft 510 kts 352°
2026-05-05 13:13 45.31832 6.75616 33942 ft 511 kts 352°
2026-05-05 13:14 45.38950 6.75141 33944 ft 510 kts 352°
2026-05-05 13:14 45.46022 6.74665 33949 ft 512 kts 352°
2026-05-05 13:15 45.53168 6.74179 33938 ft 512 kts 352°
2026-05-05 13:15 45.60266 6.73692 33939 ft 512 kts 352°
2026-05-05 13:16 45.67365 6.73205 33931 ft 512 kts 352°
2026-05-05 13:16 45.74502 6.72714 33935 ft 512 kts 353°
2026-05-05 13:17 45.81560 6.72228 33928 ft 511 kts 353°
2026-05-05 13:17 45.88714 6.71743 33932 ft 511 kts 353°
2026-05-05 13:18 45.95828 6.71260 33921 ft 509 kts 353°
2026-05-05 13:18 46.02913 6.70777 33929 ft 510 kts 353°
2026-05-05 13:19 46.10001 6.70386 33937 ft 513 kts 358°
2026-05-05 13:19 46.16987 6.72050 33941 ft 520 kts 14°
2026-05-05 13:20 46.23957 6.74925 33930 ft 521 kts 14°
2026-05-05 13:20 46.30962 6.77862 33932 ft 520 kts 14°
2026-05-05 13:21 46.37896 6.80795 33929 ft 520 kts 14°
2026-05-05 13:21 46.44775 6.83722 33928 ft 520 kts 14°
2026-05-05 13:22 46.51643 6.87110 33942 ft 520 kts 25°
2026-05-05 13:22 46.57660 6.92926 33944 ft 522 kts 43°
2026-05-05 13:23 46.62471 7.00692 33923 ft 516 kts 52°
2026-05-05 13:23 46.67038 7.08741 33922 ft 516 kts 52°
2026-05-05 13:24 46.71561 7.16861 33922 ft 516 kts 52°
2026-05-05 13:24 46.76040 7.24968 33919 ft 516 kts 52°
2026-05-05 13:25 46.80546 7.33161 33912 ft 515 kts 52°
2026-05-05 13:25 46.84992 7.41278 33911 ft 515 kts 52°
2026-05-05 13:26 46.89451 7.49456 33906 ft 515 kts 52°
2026-05-05 13:26 46.93885 7.57616 33906 ft 515 kts 52°
2026-05-05 13:27 46.98358 7.65872 33905 ft 515 kts 53°
2026-05-05 13:27 47.02783 7.74061 33906 ft 513 kts 53°
2026-05-05 13:28 47.07204 7.82270 33903 ft 512 kts 53°
2026-05-05 13:28 47.11604 7.90466 33887 ft 511 kts 53°
2026-05-05 13:29 47.15623 7.99021 33904 ft 509 kts 60°
2026-05-05 13:29 47.19387 8.07788 33899 ft 507 kts 60°
2026-05-05 13:30 47.23149 8.16611 33897 ft 510 kts 60°
2026-05-05 13:30 47.26918 8.25422 33884 ft 509 kts 57°
2026-05-05 13:31 47.31724 8.33079 33898 ft 512 kts 38°
2026-05-05 13:31 47.37829 8.38477 33897 ft 513 kts 26°
2026-05-05 13:32 47.44222 8.43128 33865 ft 511 kts 26°
2026-05-05 13:32 47.50617 8.47713 33881 ft 510 kts 26°
2026-05-05 13:33 47.57035 8.52294 33874 ft 510 kts 26°
2026-05-05 13:33 47.63407 8.56845 33881 ft 509 kts 26°
2026-05-05 13:34 47.69621 8.61291 33877 ft 509 kts 26°
2026-05-05 13:34 47.75862 8.65765 33896 ft 509 kts 27°
2026-05-05 13:35 47.82112 8.70258 33879 ft 507 kts 27°
2026-05-05 13:35 47.88461 8.74835 33872 ft 506 kts 27°
2026-05-05 13:36 47.94726 8.79363 33875 ft 505 kts 27°
2026-05-05 13:36 48.01031 8.83933 33857 ft 500 kts 27°
2026-05-05 13:37 48.04117 8.86174 33857 ft 489 kts 27°
2026-05-05 13:37 48.07138 8.88370 33887 ft 481 kts 27°
2026-05-05 13:37 48.12761 8.92467 33715 ft 487 kts 27°
2026-05-05 13:38 48.15893 8.94379 33237 ft 494 kts 18°
2026-05-05 13:38 48.19209 8.95586 32715 ft 494 kts
2026-05-05 13:38 48.22597 8.96185 32080 ft 493 kts
2026-05-05 13:38 48.26008 8.96711 31460 ft 491 kts
2026-05-05 13:39 48.29396 8.97238 30857 ft 490 kts
2026-05-05 13:39 48.32776 8.97758 30271 ft 490 kts
2026-05-05 13:39 48.36135 8.98273 29693 ft 491 kts
2026-05-05 13:39 48.39569 8.98798 29125 ft 492 kts
2026-05-05 13:40 48.42939 8.99313 28589 ft 487 kts
2026-05-05 13:40 48.46266 8.99821 28076 ft 480 kts
2026-05-05 13:40 48.49594 9.00329 27475 ft 476 kts
2026-05-05 13:40 48.52839 9.00825 26927 ft 470 kts
2026-05-05 13:41 48.56069 9.01319 26416 ft 466 kts
2026-05-05 13:41 48.59271 9.01810 25909 ft 462 kts
2026-05-05 13:41 48.62466 9.02302 25412 ft 460 kts
2026-05-05 13:41 48.65636 9.02999 24864 ft 458 kts 10°
2026-05-05 13:42 48.68744 9.03755 24320 ft 453 kts
2026-05-05 13:42 48.71822 9.04492 23801 ft 447 kts
2026-05-05 13:42 48.74835 9.05214 23307 ft 442 kts
2026-05-05 13:42 48.77881 9.05943 22814 ft 439 kts
2026-05-05 13:43 48.80846 9.06653 22336 ft 436 kts
2026-05-05 13:43 48.83815 9.07365 21846 ft 433 kts
2026-05-05 13:43 48.86787 9.08077 21364 ft 431 kts
2026-05-05 13:43 48.89730 9.08682 20879 ft 427 kts
2026-05-05 13:44 48.92681 9.09074 20387 ft 425 kts
2026-05-05 13:44 48.95615 9.09486 19909 ft 421 kts
2026-05-05 13:44 48.98467 9.09889 19432 ft 418 kts
2026-05-05 13:44 49.01371 9.10300 18963 ft 414 kts
2026-05-05 13:45 49.04232 9.10707 18483 ft 412 kts
2026-05-05 13:45 49.07065 9.11110 18024 ft 409 kts
2026-05-05 13:45 49.09881 9.11512 17558 ft 406 kts
2026-05-05 13:45 49.12105 9.11829 17190 ft 404 kts
2026-05-05 13:46 49.14853 9.12222 16741 ft 402 kts
2026-05-05 13:46 49.17631 9.12619 16288 ft 399 kts
2026-05-05 13:46 49.20373 9.13012 15824 ft 397 kts
2026-05-05 13:46 49.23103 9.13403 15364 ft 394 kts
2026-05-05 13:47 49.25821 9.13793 14930 ft 391 kts
2026-05-05 13:47 49.28525 9.14264 14466 ft 387 kts 11°
2026-05-05 13:47 49.31130 9.15160 14023 ft 383 kts 13°
2026-05-05 13:47 49.33719 9.16062 13597 ft 382 kts 13°
2026-05-05 13:48 49.36282 9.16962 13181 ft 380 kts 13°
2026-05-05 13:48 49.38856 9.17870 12746 ft 376 kts 13°
2026-05-05 13:48 49.41363 9.18758 12322 ft 373 kts 13°
2026-05-05 13:48 49.43884 9.19652 11898 ft 371 kts 13°
2026-05-05 13:49 49.46404 9.20547 11466 ft 369 kts 13°
2026-05-05 13:49 49.48907 9.21437 11042 ft 367 kts 13°
2026-05-05 13:49 49.51368 9.22313 10622 ft 363 kts 13°
2026-05-05 13:49 49.53805 9.23182 10246 ft 359 kts 13°
2026-05-05 13:50 49.56186 9.24031 10148 ft 346 kts 14°
2026-05-05 13:50 49.58461 9.24843 10124 ft 329 kts 14°
2026-05-05 13:50 49.60618 9.25615 10083 ft 313 kts 13°
2026-05-05 13:50 49.62681 9.26353 10047 ft 298 kts 14°
2026-05-05 13:51 49.64660 9.27063 9980 ft 284 kts 14°
2026-05-05 13:51 49.66598 9.27759 9937 ft 288 kts 13°
2026-05-05 13:51 49.68565 9.28465 9867 ft 295 kts 14°
2026-05-05 13:51 49.70565 9.29183 9815 ft 293 kts 14°
2026-05-05 13:52 49.72530 9.29889 9814 ft 290 kts 14°
2026-05-05 13:52 49.74507 9.30601 9821 ft 292 kts 14°
2026-05-05 13:52 49.76469 9.31308 9821 ft 292 kts 14°
2026-05-05 13:52 49.78450 9.32021 9815 ft 291 kts 14°
2026-05-05 13:53 49.80412 9.32729 9822 ft 292 kts 14°
2026-05-05 13:53 49.82414 9.33386 9815 ft 293 kts
2026-05-05 13:53 49.84431 9.33033 9870 ft 294 kts 337°
2026-05-05 13:53 49.86123 9.31367 9880 ft 294 kts 310°
2026-05-05 13:54 49.87192 9.28720 9864 ft 291 kts 288°
2026-05-05 13:54 49.87841 9.25753 9825 ft 289 kts 286°
2026-05-05 13:54 49.88467 9.22791 9814 ft 285 kts 285°
2026-05-05 13:54 49.89053 9.19879 9823 ft 287 kts 285°
2026-05-05 13:55 49.89637 9.16906 9828 ft 289 kts 285°
2026-05-05 13:55 49.90213 9.13935 9828 ft 287 kts 284°
2026-05-05 13:55 49.90779 9.10989 9832 ft 286 kts 284°
2026-05-05 13:55 49.91342 9.08034 9817 ft 286 kts 284°
2026-05-05 13:56 49.91902 9.05088 9835 ft 288 kts 284°
2026-05-05 13:56 49.92472 9.02079 9823 ft 288 kts 284°
2026-05-05 13:56 49.93032 8.99115 9834 ft 287 kts 284°
2026-05-05 13:56 49.93603 8.96178 9820 ft 287 kts 289°
2026-05-05 13:57 49.94672 8.93595 9863 ft 290 kts 317°
2026-05-05 13:57 49.96387 8.91980 9876 ft 295 kts 344°
2026-05-05 13:57 49.98418 8.91596 9884 ft 295 kts
2026-05-05 13:57 50.00437 8.91773 9826 ft 292 kts 14°
2026-05-05 13:58 50.02269 8.93037 9871 ft 288 kts 41°
2026-05-05 13:58 50.03533 8.95424 9876 ft 286 kts 66°
2026-05-05 13:58 50.04327 8.98245 9841 ft 286 kts 70°
2026-05-05 13:58 50.05065 9.01080 9826 ft 282 kts 71°
2026-05-05 13:59 50.06468 9.06781 9837 ft 282 kts 72°
2026-05-05 13:59 50.07136 9.09586 9830 ft 281 kts 72°
2026-05-05 14:00 50.08483 9.15315 9839 ft 283 kts 72°
2026-05-05 14:00 50.08931 9.17230 9828 ft 282 kts 72°
2026-05-05 14:00 50.09816 9.21031 9829 ft 281 kts 73°
2026-05-05 14:00 50.10483 9.23905 9831 ft 282 kts 73°
2026-05-05 14:01 50.11146 9.26765 9795 ft 282 kts 73°
2026-05-05 14:01 50.11816 9.29674 9578 ft 287 kts 72°
2026-05-05 14:01 50.12485 9.32564 9305 ft 285 kts 72°
2026-05-05 14:01 50.13147 9.35426 9058 ft 280 kts 72°
2026-05-05 14:02 50.13802 9.38271 8630 ft 279 kts 72°
2026-05-05 14:02 50.14457 9.41116 8320 ft 274 kts 71°
2026-05-05 14:02 50.15092 9.43880 7999 ft 272 kts 71°
2026-05-05 14:02 50.15722 9.46642 7780 ft 269 kts 72°
2026-05-05 14:03 50.16333 9.49396 7776 ft 268 kts 72°
2026-05-05 14:03 50.16950 9.52180 7782 ft 275 kts 72°
2026-05-05 14:03 50.17569 9.54971 7762 ft 274 kts 72°
2026-05-05 14:03 50.18197 9.57807 7485 ft 278 kts 72°
2026-05-05 14:04 50.18827 9.60658 7175 ft 274 kts 72°
2026-05-05 14:04 50.19439 9.63427 6863 ft 270 kts 72°
2026-05-05 14:04 50.20044 9.66167 6544 ft 268 kts 72°
2026-05-05 14:04 50.20650 9.68915 6245 ft 268 kts 72°
2026-05-05 14:05 50.21253 9.71646 6107 ft 263 kts 72°
2026-05-05 14:05 50.21841 9.74315 6116 ft 265 kts 72°
2026-05-05 14:05 50.22441 9.77039 6118 ft 269 kts 72°
2026-05-05 14:05 50.23048 9.79800 6113 ft 268 kts 72°
2026-05-05 14:06 50.23651 9.82549 6116 ft 267 kts 72°
2026-05-05 14:06 50.24253 9.85294 6119 ft 267 kts 72°
2026-05-05 14:06 50.24855 9.88040 6120 ft 267 kts 72°
2026-05-05 14:06 50.25449 9.90752 6120 ft 267 kts 72°
2026-05-05 14:07 50.26055 9.93524 5983 ft 272 kts 72°
2026-05-05 14:07 50.26659 9.96296 5681 ft 271 kts 72°
2026-05-05 14:07 50.27261 9.99058 5381 ft 265 kts 71°
2026-05-05 14:07 50.27844 10.01733 5291 ft 255 kts 71°
2026-05-05 14:08 50.28415 10.04355 5328 ft 263 kts 71°
2026-05-05 14:08 50.29020 10.07145 5090 ft 273 kts 71°
2026-05-05 14:08 50.29607 10.09956 4737 ft 270 kts 72°
2026-05-05 14:08 50.30132 10.12597 5013 ft 241 kts 72°
2026-05-05 14:09 50.30629 10.15104 4937 ft 250 kts 72°
2026-05-05 14:09 50.31220 10.17730 4979 ft 266 kts 60°
2026-05-05 14:09 50.32430 10.19869 4992 ft 265 kts 31°
2026-05-05 14:09 50.34162 10.20823 4996 ft 263 kts
2026-05-05 14:10 50.35931 10.20335 5001 ft 262 kts 332°
2026-05-05 14:10 50.37325 10.18552 5000 ft 262 kts 303°
2026-05-05 14:10 50.37979 10.15922 4997 ft 261 kts 274°
2026-05-05 14:10 50.37731 10.13151 5000 ft 261 kts 247°
2026-05-05 14:11 50.37000 10.10541 4966 ft 262 kts 248°
2026-05-05 14:11 50.36357 10.07908 4959 ft 260 kts 250°
2026-05-05 14:11 50.35754 10.05248 4963 ft 260 kts 251°
2026-05-05 14:11 50.35176 10.02590 4962 ft 260 kts 251°
2026-05-05 14:12 50.34602 9.99883 4963 ft 260 kts 252°
2026-05-05 14:12 50.34044 9.97207 4967 ft 260 kts 252°
2026-05-05 14:12 50.33484 9.94506 4957 ft 259 kts 252°
2026-05-05 14:12 50.32932 9.91832 4972 ft 259 kts 252°
2026-05-05 14:13 50.32385 9.89177 4974 ft 260 kts 253°
2026-05-05 14:13 50.31831 9.86477 4963 ft 260 kts 252°
2026-05-05 14:13 50.31277 9.83792 4952 ft 258 kts 252°
2026-05-05 14:13 50.30728 9.81129 4962 ft 259 kts 252°
2026-05-05 14:14 50.30175 9.78452 4958 ft 260 kts 252°
2026-05-05 14:14 50.29617 9.75756 4962 ft 259 kts 252°
2026-05-05 14:14 50.29062 9.73076 4974 ft 260 kts 252°
2026-05-05 14:14 50.28507 9.70388 4983 ft 259 kts 252°
2026-05-05 14:15 50.27950 9.67715 4994 ft 259 kts 253°
2026-05-05 14:15 50.27403 9.65068 4970 ft 259 kts 252°
2026-05-05 14:15 50.26838 9.62360 4975 ft 260 kts 252°
2026-05-05 14:15 50.26282 9.59693 4964 ft 257 kts 253°
2026-05-05 14:16 50.25733 9.57056 4975 ft 258 kts 252°
2026-05-05 14:16 50.25176 9.54389 4976 ft 259 kts 252°
2026-05-05 14:16 50.24615 9.51706 4974 ft 257 kts 252°
2026-05-05 14:16 50.24083 9.49062 4977 ft 257 kts 256°
2026-05-05 14:17 50.23662 9.46339 4979 ft 257 kts 256°
2026-05-05 14:17 50.23225 9.43671 4979 ft 256 kts 256°
2026-05-05 14:17 50.22773 9.40981 4975 ft 257 kts 256°
2026-05-05 14:17 50.22325 9.38313 4976 ft 257 kts 256°
2026-05-05 14:18 50.21874 9.35628 4982 ft 258 kts 256°
2026-05-05 14:18 50.21418 9.32927 4987 ft 258 kts 255°
2026-05-05 14:18 50.20958 9.30206 4987 ft 257 kts 255°
2026-05-05 14:18 50.20509 9.27551 4987 ft 257 kts 255°
2026-05-05 14:19 50.20049 9.24839 4989 ft 257 kts 255°